User: anonymous   Login
Location: Newark
(49.4900°N, 20.6656°E)
Time: 16:58:06
(UTC+00:00)
Language:

STARLINK-1713 - Orbit

View from above orbital plane
View from above orbital plane
View from above satellite
View from above satellite

Ground track
Ground track

The orbit data is extracted from the following two-line orbital elements,

1 46360C 20062AN  20338.41296892  .00023093  00000-0  25165-3 0  3382
2 46360  52.9983 343.4335 0002426  17.1978  88.8008 15.62729683    11
Epoch (UTC): 03 December 2020 09:54:40
Eccentricity: 0.0002426
inclination: 52.9983°
perigee height: 378 km
apogee height: 381 km
right ascension of ascending node: 343.4335°
argument of perigee: 17.1978°
revolutions per day: 15.62729683
mean anomaly at epoch: 88.8008°
orbit number at epoch: 1

The dashed part of the orbit path shows where the satellite is in the earth's shadow,  

DLR